Regional Weather Roundup
Issued by NWS

Home | Current Version | Previous Version | Text Only | Print | Product List | Glossary On
Versions: 1 2 3 4 5 6 7 8 9 10 11 12 13 14 15 16 17 18 19 20 21 22 23 24 25 26 27 28 29 30 31 32 33 34 35 36 37 38 39 40 41 42 43 44 45 46 47 48 49 50
000
ASUS43 KDTX 240110
RWRMI
MICHIGAN HOURLY REGIONAL WEATHER ROUNDUP
NATIONAL WEATHER SERVICE DETROIT/PONTIAC MI
800 PM EST TUE JAN 23 2018

NOTE: "FAIR" INDICATES FEW OR NO CLOUDS BELOW 12,000 FEET WITH NO
SIGNIFICANT WEATHER AND/OR OBSTRUCTION TO VISIBILITY.

MIZ047>049-052>055-059>063-066>070-074>076-081>083-240200-
SOUTHEAST LOWER MICHIGAN

CITY           SKY/WX    TMP DP  RH WIND       PRES   REMARKS
ADRIAN         CLOUDY    30  25  81 NW17G28   29.93R WCI  18
ALMA           CLOUDY    28  23  82 W12       29.94R WCI  18
ANN ARBOR      CLOUDY    30  24  78 W16G24    29.90R WCI  19
BAD AXE        CLOUDY    22  17  81 NW15      29.87R WCI   9
CARO           CLOUDY    24  19  81 NW12      29.90R WCI  13
DETROIT CITY   CLOUDY    31  25  78 W13G18    29.87R WCI  21
DETROIT        CLOUDY    31  25  78 W14G25    29.90R WCI  21
FLINT          CLOUDY    27  20  75 NW16      29.90R WCI  15
GROSSE ILE     CLOUDY    32  26  78 NW20G28   29.88R WCI  20
HILLSDALE      CLOUDY    30  27  86 W20G28    29.90R WCI  18
HOWELL         CLOUDY    29  25  84 NW14G22   29.89R WCI  18

CITY           SKY/WX    TMP DP  RH WIND       PRES   REMARKS
JACKSON        CLOUDY    30  23  75 W16G24    29.92R WCI  19
LAMBERTVILLE   CLOUDY    32  26  79 W15G26    29.93R WCI  21
LANSING        CLOUDY    28  22  78 NW14G24   29.94R WCI  17
LAPEER         CLOUDY    26  21  80 NW12G20   29.88R WCI  16
MONROE         CLOUDY    32  25  74 W17G26    29.90R WCI  21
MT. CLEMENS    CLOUDY    30  28  91 W16G24    29.85R WCI  19
PONTIAC        FLURRIES  28  24  85 NW21G29   29.85R WCI  15
PORT HOPE        N/A     24  17  74 NW21G30   29.84R WCI   9
PORT HURON     CLOUDY    28  23  80 W13       29.86R WCI  18
TRI CITIES     CLOUDY    26  21  81 NW10      29.92R WCI  16
MIDLAND        CLOUDY    27  21  80 NW8       29.90R WCI  18
TROY           CLOUDY    31  26  82 W14G20    29.89R WCI  21
SAGINAW HB     CLOUDY    27  21  80 NW8       29.91R WCI  18
$$
MIZ043>046-050>051-056>058-064>065-071>073-077>080-240200-
SOUTHWEST LOWER MICHIGAN

CITY           SKY/WX    TMP DP  RH WIND       PRES   REMARKS
BATTLE CREEK   CLOUDY    30  22  72 NW18G28   29.96R WCI  18
BENTON HARBOR  CLOUDY    33  25  72 NW10G18   30.03R WCI  25
BIG RAPIDS     FAIR      26  19  77 NW10G18   29.95R WCI  15
COLDWATER      CLOUDY    31  27  87 NW17G23   29.95R WCI  19
FREMONT        CLOUDY    28  18  67 NW15G23   30.00R WCI  16
HOLLAND        CLOUDY    31  23  72 NW12G23   30.02R WCI  22
GRAND RAPIDS   CLOUDY    29  21  72 NW16      29.97R WCI  17
IONIA          CLOUDY    28  22  75 NW10G17   29.95R WCI  19
KALAMAZOO      CLOUDY    31  22  69 N17G28    29.98R WCI  19
LUDINGTON      CLOUDY    27  22  80 N13G18    30.02R WCI  17
MARSHALL       CLOUDY    29  23  76 NW9G20    29.94R WCI  21
MOUNT PLEASANT MOCLDY    28  21  75 NW8       29.91R WCI  20
MUSKEGON       CLOUDY    29  22  75 NW16G29   30.03R WCI  17
SOUTH HAVEN    CLOUDY    33  26  78 NW14G21   30.02R WCI  23
$$
MIZ016>042-240200-
NORTHERN LOWER MICHIGAN

CITY           SKY/WX    TMP DP  RH WIND       PRES   REMARKS
ALPENA         LGT SNOW  23  19  85 NW15G25   29.88R FOG     WCI  10
BEAVER ISLAND  CLOUDY    22  16  77 NW6       29.97R WCI  14
BELLAIRE       CLOUDY    24  19  82 NW10G16   29.97R WCI  13
CADILLAC       CLOUDY    24  19  82 NW14      29.93R WCI  12
CHARLEVOIX     CLOUDY    23  18  80 NW8       29.99R WCI  14
FRANKFORT      MOCLDY    27  20  76 NW8G16    30.01R WCI  19
GAYLORD        CLOUDY    19  17  92 NW13G23   29.89R WCI   6
GRAYLING       CLOUDY    22  18  83 NW18G26   29.90R WCI   8
HARBOR SPRINGS CLOUDY    21  17  84 CALM      29.94R
HOUGHTON LAKE  CLOUDY    23  18  81 NW16G24   29.89R WCI  10
MANISTEE       CLOUDY    27  22  81 NW17      30.01R WCI  14
OSCODA         CLOUDY    22  17  80 NW14      29.86R WCI   9
PELLSTON       CLOUDY    20  15  81 NW20      29.94R WCI   4
ROGERS CITY    CLOUDY    23  19  84 NW7       29.90R WCI  15
TRAVERSE CITY  CLOUDY    27  19  72 N16G30    29.97R WCI  15
$$
MIZ007>008-015-240200-
EASTERN UPPER MICHIGAN

CITY           SKY/WX    TMP DP  RH WIND       PRES   REMARKS
KINROSS        CLOUDY    17  14  88 NW20G28   29.90R WCI   1
MACKINAC ISLAN CLOUDY    18  15  85 NW9G20    29.92R WCI   7
NEWBERRY       CLOUDY    17  16  95 N13G22    29.96R WCI   3
S. S. MARIE    FAIR      15   7  70 N9        29.93R WCI   3
MUNISING         N/A     21  15  78 N13       30.03R WCI   9
$$
MIZ004>006-011>014-085-240200-
CENTRAL UPPER MICHIGAN

CITY           SKY/WX    TMP DP  RH WIND       PRES   REMARKS
ESCANABA       FLURRIES  18  10  73 NW9G18    30.07R WCI   6
MENOMINEE      FAIR      21  16  81 NW5       30.08R WCI  15
SAWYER-GWINN   FLURRIES  16  10  79 NW12      30.03R WCI   3
$$
MIZ001>003-009>011-084-240200-
WESTERN UPPER MICHIGAN

CITY           SKY/WX    TMP DP  RH WIND       PRES   REMARKS
IRON MOUNTAIN  FAIR      16  10  77 NW13      30.04R WCI   2
HOUGHTON       CLOUDY    15   6  67 N10       30.08R WCI   2
COPPER HARBOR    N/A     19  12  74 NE15      30.10R WCI   5
IRONWOOD       CLOUDY    12   9  87 CALM      30.11R
$$

ABBREVIATIONS USED IN REMARKS
   TC - TEMPERATURE IN CELSIUS
  WCI - WIND CHILL INDEX
   HX - HEAT INDEX
  VSB - VISIBILITY





USA.gov is the U.S. government's official web portal to all federal, state and local government web resources and services.